{"data":{"norad_id":51654,"epoch":"2026-09-20T01:57:50.297760Z","epoch_age_seconds":61960,"freshness":"FRESH","line1":"1 51654U 22012AJ  26263.08183215  .00000446  00000+0  12403-2 0  9990","line2":"2 51654  87.8903  17.3753 0001957  96.8785 263.2565 13.10374463221724","mean_motion":13.10374463,"eccentricity":0.0001957,"inclination_deg":87.8903,"raan_deg":17.3753,"arg_perigee_deg":96.8785,"mean_anomaly_deg":263.2565,"bstar":0.0012403,"rev_number":22172,"period_min":109.892251464,"perigee_km":1220.223496297,"apogee_km":1223.1980767206,"semimajor_km":7599.8477865088,"source":"CELESTRAK","updated_at":"2026-09-20T09:00:44.714302Z"}}